Location: Seven Kings
(51.5667°N, 0.1000°E)
Time: 03:28:14
(UTC+00:00)

Envisat - Pass Details

Date: 29 October 2020
Orbit: 764 x 766 km, 98.1° (Epoch: 27 November)

Event Time Altitude Azimuth Distance (km) Brightness Sun altitude
Rises 17:02:37 0° 169° (SSE) 3,222 6.3 -4.6°
Reaches altitude 10° 17:04:55 10° 171° (S) 2,300 5.6 -4.9°
Maximum altitude 17:09:59 75° 256° (WSW) 798 3.3 -5.7°
Drops below altitude 10° 17:15:06 10° 343° (NNW) 2,316 5.5 -6.5°
Sets 17:17:26 0° 345° (NNW) 3,247 6.3 -6.8°
